Home > Weather > Sedona > Past weeks

Flag for USA Past Weather in Sedona, Arizona, USA — Yesterday and Last 2 Weeks

Now
88 °F

Sunny.


Feels Like: 85 °F
Forecast: 69 / 92 °F
Wind: 9 mph from South

Location: Sedona Airport

Current Time: Jul 30, 2016 at 11:55:54 AM

Latest Report: Jul 30, 2016 at 11:10 AM


Visibility: 10 mi

Pressure: 30.13 "Hg (26.09 "Hg at 1282m altitude)

Humidity: 29%

Dew Point: 52 °F

Location of SedonaLocation

Past Weather in Sedona — Graph

°F

Sedona Temperature Yesterday

Maximum temperature yesterday: 104 °F (at 1:50 PM)
Minimum temperature yesterday: 77 °F (at 4:10 AM)
Average temperature yesterday: 86 °F

High & Low Weather Summary for the Past Weeks

 TemperatureHumidityPressure
High104 °F (Jul 29, 1:50 PM)94% (Jul 20, 2:10 PM)30.30 "Hg (Jul 20, 2:10 PM)
Low63 °F (Jul 20, 1:50 PM)10% (Jul 15, 2:10 PM)30.00 "Hg (Jul 29, 3:50 PM)
Average83 °F33%30.16 "Hg
* Reported Jul 15 10:10 AM — Jul 30 10:30 AM, Sedona, Weather by CustomWeather, © 2016

Note: Actual official high and low records may vary slightly from our data, if they occured in-between our weather recording intervals... More about our weather records

Advertising

Sedona Weather History for the Previous 24 Hours

Scroll right to see more
 ConditionsComfort  
Time TempWeatherWind HumidityBarometerVisibility
10:30 AM
Sat, Jul 30
86 °FSunny.8 mph35%30.13 "Hg10 mi
10:10 AM84 °FSunny.8 mph35%30.12 "Hg10 mi
9:50 AM86 °FSunny.6 mph31%30.12 "Hg10 mi
9:30 AM84 °FSunny.3 mph33%30.11 "Hg10 mi
9:10 AM82 °FSunny.5 mph35%30.12 "Hg10 mi
8:50 AM81 °FSunny.5 mph39%30.12 "Hg10 mi
8:30 AM81 °FSunny.No wind39%30.12 "Hg10 mi
8:10 AM79 °FSunny.No wind42%30.12 "Hg10 mi
7:50 AM77 °FSunny.3 mph44%30.13 "Hg10 mi
7:30 AM75 °FSunny.3 mph47%30.12 "Hg10 mi
7:10 AM73 °FSunny.7 mph50%30.11 "Hg10 mi
6:50 AM72 °FSunny.8 mph53%30.11 "Hg10 mi
6:30 AM72 °FSunny.12 mph53%30.11 "Hg10 mi
6:10 AM72 °FSunny.7 mph53%30.12 "Hg10 mi
5:50 AM72 °FSunny.8 mph53%30.13 "Hg10 mi
5:10 AM70 °FClear.8 mph57%30.13 "Hg10 mi
4:50 AM70 °FClear.No wind60%30.14 "Hg10 mi
4:30 AM70 °FClear.5 mph60%30.13 "Hg10 mi
4:10 AM70 °FClear.No wind60%30.12 "Hg10 mi
3:50 AM70 °FClear.No wind60%30.12 "Hg10 mi
3:30 AM70 °FClear.No wind60%30.11 "Hg10 mi
3:10 AM72 °FClear.No wind57%30.12 "Hg10 mi
2:50 AM70 °FClear.3 mph60%30.11 "Hg10 mi
2:10 AM70 °FClear.No wind64%30.11 "Hg10 mi
1:50 AM70 °FClear.3 mph64%30.10 "Hg10 mi
1:30 AM70 °FClear.No wind64%30.11 "Hg10 mi
1:10 AM72 °FClear.No wind61%30.11 "Hg10 mi
12:50 AM72 °FClear.5 mph61%30.12 "Hg10 mi
12:30 AM72 °FPassing clouds.9 mph61%30.13 "Hg10 mi
12:10 AM73 °FPassing clouds.6 mph53%30.15 "Hg10 mi
11:50 PM
Fri, Jul 29
77 °FClear.12 mph42%30.14 "Hg10 mi
11:30 PM79 °FClear.14 mph37%30.13 "Hg10 mi
11:10 PM81 °FClear.7 mph30%30.12 "Hg10 mi
10:50 PM81 °FClear.8 mph30%30.11 "Hg10 mi
10:30 PM81 °FClear.9 mph30%30.10 "Hg10 mi
10:10 PM81 °FClear.7 mph28%30.09 "Hg10 mi
9:50 PM82 °FClear.3 mph26%30.09 "Hg10 mi
9:30 PM82 °FClear.12 mph28%30.08 "Hg10 mi
9:10 PM81 °FClear.12 mph30%30.08 "Hg10 mi
8:50 PM81 °FClear.10 mph34%30.08 "Hg10 mi
8:30 PM81 °FClear.No wind32%30.08 "Hg10 mi
8:10 PM82 °FClear.9 mph28%30.08 "Hg10 mi
7:30 PM81 °FSunny.9 mph34%30.06 "Hg10 mi
7:10 PM82 °FSunny.10 mph26%30.04 "Hg10 mi
6:50 PM86 °FThundershowers. Sunny.No wind22%30.05 "Hg10 mi
6:30 PM86 °FSunny.5 mph22%30.05 "Hg10 mi
6:10 PM86 °FThundershowers. Sunny.7 mph24%30.04 "Hg10 mi
5:50 PM86 °FSunny.14 mph24%30.04 "Hg10 mi
5:10 PM90 °FThundershowers. Sunny.14 mph20%30.04 "Hg10 mi
4:50 PM90 °FThundershowers. Sunny.15 mph18%30.03 "Hg10 mi
4:30 PM91 °FScattered clouds.16 mph16%30.02 "Hg10 mi
4:10 PM91 °FScattered clouds.12 mph17%30.01 "Hg10 mi
3:50 PM90 °FThundershowers. Broken clouds.9 mph21%30.00 "Hg10 mi
3:30 PM91 °FScattered clouds.14 mph17%30.02 "Hg10 mi
3:10 PM95 °FSunny.14 mph15%30.02 "Hg10 mi
2:50 PM100 °FSunny.6 mph13%30.02 "Hg10 mi
2:30 PM104 °FSunny.6 mph12%30.02 "Hg10 mi
2:10 PM102 °FSunny.6 mph12%30.02 "Hg10 mi
1:50 PM104 °FSunny.10 mph12%30.04 "Hg10 mi
1:30 PM100 °FSunny.9 mph13%30.04 "Hg10 mi
1:10 PM99 °FSunny.8 mph14%30.06 "Hg10 mi
12:50 PM99 °FSunny.3 mph15%30.07 "Hg10 mi
12:10 PM100 °FSunny.8 mph14%30.09 "Hg10 mi
11:50 AM97 °FSunny.7 mph16%30.10 "Hg10 mi
11:30 AM97 °FSunny.7 mph16%30.11 "Hg10 mi
11:10 AM95 °FSunny.3 mph16%30.11 "Hg10 mi
Weather by CustomWeather, © 2016

See weather overviewHow to use our weather pages